Time,TemperatureF,DewpointF,PressureIn,WindDirection,WindDirectionDegrees,WindSpeedMPH,WindSpeedGustMPH,Humidity,HourlyPrecipIn,Conditions,Clouds,dailyrainin,SoftwareType,DateUTC
2013-01-08 00:00:00,22.4,19.4,30.33,North,0,0.0,1.0,88,0.00,,,0.00,meteo_script,2013-01-08 05:00:00,
2013-01-08 00:05:00,22.6,19.2,30.33,SSE,160,0.1,2.0,86,0.00,,,0.00,meteo_script,2013-01-08 05:05:00,
2013-01-08 00:10:00,22.9,19.4,30.33,South,173,0.1,1.0,86,0.00,,,0.00,meteo_script,2013-01-08 05:10:00,
2013-01-08 00:15:00,23.0,19.4,30.33,SSE,164,0.2,3.0,86,0.00,,,0.00,meteo_script,2013-01-08 05:15:00,
2013-01-08 00:20:00,23.0,19.5,30.33,North,0,0.2,3.0,86,0.00,,,0.00,meteo_script,2013-01-08 05:20:00,
2013-01-08 00:30:00,22.8,19.5,30.33,North,0,0.0,1.0,87,0.00,,,0.00,meteo_script,2013-01-08 05:30:00,
2013-01-08 00:40:00,22.6,19.5,30.32,North,0,0.0,1.0,87,0.00,,,0.00,meteo_script,2013-01-08 05:40:00,
2013-01-08 00:45:00,22.6,19.3,30.32,South,174,0.0,1.0,87,0.00,,,0.00,meteo_script,2013-01-08 05:45:00,
2013-01-08 00:50:00,22.7,19.3,30.32,South,173,0.3,4.0,86,0.00,,,0.00,meteo_script,2013-01-08 05:50:00,
2013-01-08 00:55:00,22.8,19.3,30.32,SW,228,0.8,5.0,86,0.00,,,0.00,meteo_script,2013-01-08 05:55:00,
2013-01-08 01:00:00,22.8,19.3,30.32,SSW,192,0.6,3.0,86,0.00,,,0.00,meteo_script,2013-01-08 06:00:00,
2013-01-08 01:05:00,22.8,19.3,30.31,North,0,0.1,1.0,86,0.00,,,0.00,meteo_script,2013-01-08 06:05:00,
2013-01-08 01:15:00,22.7,19.2,30.31,South,190,0.1,2.0,86,0.00,,,0.00,meteo_script,2013-01-08 06:15:00,
2013-01-08 01:20:00,22.6,19.3,30.31,South,190,0.1,1.0,86,0.00,,,0.00,meteo_script,2013-01-08 06:20:00,
2013-01-08 01:25:00,22.4,19.1,30.31,South,190,0.1,2.0,87,0.00,,,0.00,meteo_script,2013-01-08 06:25:00,
2013-01-08 01:30:00,22.2,19.0,30.31,North,0,0.1,1.0,87,0.00,,,0.00,meteo_script,2013-01-08 06:30:00,
2013-01-08 01:35:00,22.2,19.0,30.31,South,190,0.1,2.0,87,0.00,,,0.00,meteo_script,2013-01-08 06:35:00,
2013-01-08 01:45:00,22.7,19.4,30.31,SSW,205,1.1,4.0,86,0.00,,,0.00,meteo_script,2013-01-08 06:45:00,
2013-01-08 01:50:00,23.0,19.4,30.31,South,175,1.5,6.0,86,0.00,,,0.00,meteo_script,2013-01-08 06:50:00,
2013-01-08 01:55:00,23.1,19.5,30.31,South,175,1.4,5.0,86,0.00,,,0.00,meteo_script,2013-01-08 06:55:00,
2013-01-08 02:00:00,23.1,19.5,30.31,South,170,1.1,5.0,85,0.00,,,0.00,meteo_script,2013-01-08 07:00:00,
2013-01-08 02:10:00,23.2,19.5,30.31,SSW,201,1.0,4.0,85,0.00,,,0.00,meteo_script,2013-01-08 07:10:00,
2013-01-08 02:15:00,23.2,19.7,30.31,South,191,1.1,5.0,86,0.00,,,0.00,meteo_script,2013-01-08 07:15:00,
2013-01-08 02:20:00,23.2,19.6,30.31,South,186,1.2,6.0,85,0.00,,,0.00,meteo_script,2013-01-08 07:20:00,
2013-01-08 02:25:00,23.2,19.5,30.31,South,171,0.9,3.0,85,0.00,,,0.00,meteo_script,2013-01-08 07:25:00,
2013-01-08 02:35:00,23.2,19.7,30.31,South,170,1.0,5.0,86,0.00,,,0.00,meteo_script,2013-01-08 07:35:00,
2013-01-08 02:40:00,23.2,19.7,30.31,South,184,0.9,5.0,86,0.00,,,0.00,meteo_script,2013-01-08 07:40:00,
2013-01-08 02:45:00,23.2,19.6,30.30,South,178,0.6,3.0,86,0.00,,,0.00,meteo_script,2013-01-08 07:45:00,
2013-01-08 02:50:00,23.2,19.7,30.30,South,186,0.3,2.0,86,0.00,,,0.00,meteo_script,2013-01-08 07:50:00,
2013-01-08 03:00:00,23.2,19.6,30.30,South,186,0.6,4.0,86,0.00,,,0.00,meteo_script,2013-01-08 08:00:00,
2013-01-08 03:05:00,23.2,19.7,30.29,South,184,0.6,3.0,86,0.00,,,0.00,meteo_script,2013-01-08 08:05:00,
2013-01-08 03:10:00,23.4,20.0,30.29,South,182,0.5,4.0,86,0.00,,,0.00,meteo_script,2013-01-08 08:10:00,
2013-01-08 03:15:00,23.5,20.1,30.29,South,175,0.5,3.0,86,0.00,,,0.00,meteo_script,2013-01-08 08:15:00,
2013-01-08 03:25:00,23.7,20.1,30.29,South,178,0.3,3.0,86,0.00,,,0.00,meteo_script,2013-01-08 08:25:00,
2013-01-08 03:30:00,23.7,20.1,30.29,North,0,0.6,4.0,86,0.00,,,0.00,meteo_script,2013-01-08 08:30:00,
2013-01-08 03:35:00,23.6,20.2,30.29,South,171,0.5,3.0,86,0.00,,,0.00,meteo_script,2013-01-08 08:35:00,
2013-01-08 03:40:00,23.7,20.4,30.28,South,185,0.3,2.0,87,0.00,,,0.00,meteo_script,2013-01-08 08:40:00,
2013-01-08 03:50:00,23.8,20.5,30.28,South,172,0.8,5.0,87,0.00,,,0.00,meteo_script,2013-01-08 08:50:00,
2013-01-08 03:55:00,23.9,20.6,30.28,South,182,0.5,4.0,87,0.00,,,0.00,meteo_script,2013-01-08 08:55:00,
2013-01-08 04:00:00,23.9,20.7,30.28,SSE,167,0.3,3.0,87,0.00,,,0.00,meteo_script,2013-01-08 09:00:00,
2013-01-08 04:10:00,23.9,20.8,30.27,South,176,0.8,4.0,87,0.00,,,0.00,meteo_script,2013-01-08 09:10:00,
2013-01-08 04:20:00,24.0,21.0,30.27,South,180,0.5,3.0,88,0.00,,,0.00,meteo_script,2013-01-08 09:20:00,
2013-01-08 04:25:00,24.0,21.0,30.27,South,184,0.5,3.0,88,0.00,,,0.00,meteo_script,2013-01-08 09:25:00,
2013-01-08 04:35:00,23.8,20.9,30.27,South,171,0.3,2.0,88,0.00,,,0.00,meteo_script,2013-01-08 09:35:00,
2013-01-08 04:40:00,23.8,21.0,30.27,South,171,0.2,3.0,89,0.00,,,0.00,meteo_script,2013-01-08 09:40:00,
2013-01-08 04:45:00,23.8,21.0,30.27,South,184,0.5,4.0,89,0.00,,,0.00,meteo_script,2013-01-08 09:45:00,
2013-01-08 04:50:00,23.8,21.3,30.27,SSE,163,0.7,3.0,90,0.00,,,0.00,meteo_script,2013-01-08 09:50:00,
2013-01-08 05:00:00,23.8,21.6,30.26,SSW,204,0.6,4.0,91,0.00,,,0.00,meteo_script,2013-01-08 10:00:00,
2013-01-08 05:05:00,23.7,21.5,30.26,SSW,198,0.3,1.0,91,0.00,,,0.00,meteo_script,2013-01-08 10:05:00,
2013-01-08 05:10:00,23.7,21.7,30.27,SSW,198,0.1,1.0,92,0.00,,,0.00,meteo_script,2013-01-08 10:10:00,
2013-01-08 05:15:00,23.7,21.8,30.27,SSW,197,0.2,4.0,92,0.00,,,0.00,meteo_script,2013-01-08 10:15:00,
2013-01-08 05:25:00,24.8,23.3,30.26,SSE,150,1.3,5.0,94,0.00,,,0.00,meteo_script,2013-01-08 10:25:00,
2013-01-08 05:30:00,25.4,23.9,30.26,South,180,1.8,5.0,94,0.00,,,0.00,meteo_script,2013-01-08 10:30:00,
2013-01-08 05:35:00,25.6,24.1,30.26,South,182,1.6,5.0,94,0.00,,,0.00,meteo_script,2013-01-08 10:35:00,
2013-01-08 05:40:00,25.8,24.3,30.27,South,185,0.8,3.0,94,0.00,,,0.00,meteo_script,2013-01-08 10:40:00,
2013-01-08 05:50:00,26.0,24.5,30.26,SSE,168,0.6,4.0,94,0.00,,,0.00,meteo_script,2013-01-08 10:50:00,
2013-01-08 05:55:00,26.2,24.7,30.26,SSE,161,0.7,3.0,94,0.00,,,0.00,meteo_script,2013-01-08 10:55:00,
2013-01-08 06:00:00,26.4,24.9,30.27,South,174,0.3,2.0,94,0.00,,,0.00,meteo_script,2013-01-08 11:00:00,
2013-01-08 06:05:00,26.4,24.9,30.27,South,175,0.2,3.0,94,0.00,,,0.00,meteo_script,2013-01-08 11:05:00,
2013-01-08 06:15:00,26.6,25.2,30.26,SSW,195,0.3,4.0,94,0.00,,,0.00,meteo_script,2013-01-08 11:15:00,
2013-01-08 06:20:00,26.8,25.4,30.26,South,181,0.3,2.0,94,0.00,,,0.00,meteo_script,2013-01-08 11:20:00,
2013-01-08 06:25:00,27.0,25.7,30.26,South,184,0.3,3.0,94,0.00,,,0.00,meteo_script,2013-01-08 11:25:00,
2013-01-08 06:30:00,27.1,25.7,30.27,South,185,0.3,2.0,94,0.00,,,0.00,meteo_script,2013-01-08 11:30:00,
2013-01-08 06:40:00,27.3,25.8,30.26,South,182,0.3,2.0,94,0.00,,,0.00,meteo_script,2013-01-08 11:40:00,
2013-01-08 06:45:00,27.2,25.8,30.27,SSW,207,0.2,3.0,94,0.00,,,0.00,meteo_script,2013-01-08 11:45:00,
2013-01-08 06:50:00,27.4,26.1,30.27,SSW,210,0.1,1.0,94,0.00,,,0.00,meteo_script,2013-01-08 11:50:00,
2013-01-08 06:55:00,27.4,26.2,30.27,SSW,210,0.1,2.0,95,0.00,,,0.00,meteo_script,2013-01-08 11:55:00,
2013-01-08 07:00:00,27.4,26.2,30.27,SSW,210,0.2,2.0,95,0.00,,,0.00,meteo_script,2013-01-08 12:00:00,
2013-01-08 07:05:00,27.6,26.4,30.27,SSW,210,0.3,3.0,95,0.00,,,0.00,meteo_script,2013-01-08 12:05:00,
2013-01-08 07:10:00,27.6,26.4,30.28,SW,219,0.4,4.0,95,0.00,,,0.00,meteo_script,2013-01-08 12:10:00,
2013-01-08 07:20:00,27.8,26.8,30.29,SW,219,0.1,2.0,96,0.00,,,0.00,meteo_script,2013-01-08 12:20:00,
2013-01-08 07:25:00,27.8,26.7,30.29,SW,230,0.2,4.0,95,0.00,,,0.00,meteo_script,2013-01-08 12:25:00,
2013-01-08 07:30:00,27.8,26.7,30.29,South,187,0.2,4.0,95,0.00,,,0.00,meteo_script,2013-01-08 12:30:00,
2013-01-08 07:40:00,28.1,27.1,30.29,SSW,204,0.7,6.0,96,0.00,,,0.00,meteo_script,2013-01-08 12:40:00,
2013-01-08 07:45:00,28.1,27.0,30.29,North,0,0.4,2.0,95,0.00,,,0.00,meteo_script,2013-01-08 12:45:00,
2013-01-08 07:50:00,28.1,26.9,30.29,SSE,167,0.1,2.0,95,0.00,,,0.00,meteo_script,2013-01-08 12:50:00,
2013-01-08 08:00:00,28.2,27.1,30.30,SW,219,0.2,5.0,95,0.00,,,0.00,meteo_script,2013-01-08 13:00:00,
2013-01-08 08:05:00,28.3,27.1,30.30,North,0,0.2,1.0,95,0.00,,,0.00,meteo_script,2013-01-08 13:05:00,
2013-01-08 08:10:00,28.6,27.3,30.30,SW,218,0.3,6.0,95,0.00,,,0.00,meteo_script,2013-01-08 13:10:00,
2013-01-08 08:20:00,28.9,27.5,30.30,SSW,211,0.6,4.0,94,0.00,,,0.00,meteo_script,2013-01-08 13:20:00,
2013-01-08 08:25:00,29.2,27.7,30.30,North,0,0.4,2.0,94,0.00,,,0.00,meteo_script,2013-01-08 13:25:00,
2013-01-08 08:30:00,29.4,27.9,30.30,SSW,195,0.2,2.0,94,0.00,,,0.00,meteo_script,2013-01-08 13:30:00,
2013-01-08 08:35:00,29.7,28.0,30.30,North,0,0.2,2.0,93,0.00,,,0.00,meteo_script,2013-01-08 13:35:00,
2013-01-08 08:45:00,30.3,28.4,30.31,WSW,240,0.8,6.0,92,0.00,,,0.00,meteo_script,2013-01-08 13:45:00,
2013-01-08 08:50:00,30.4,28.6,30.31,North,0,0.5,1.0,92,0.00,,,0.00,meteo_script,2013-01-08 13:50:00,
2013-01-08 08:55:00,30.8,28.6,30.31,SW,228,0.9,8.0,91,0.00,,,0.00,meteo_script,2013-01-08 13:55:00,
2013-01-08 09:00:00,31.3,29.0,30.30,WSW,249,1.4,5.0,91,0.00,,,0.00,meteo_script,2013-01-08 14:00:00,
2013-01-08 09:10:00,32.3,29.5,30.31,WSW,241,1.8,4.0,89,0.00,,,0.00,meteo_script,2013-01-08 14:10:00,
2013-01-08 09:15:00,32.7,29.7,30.30,WSW,241,1.5,5.0,88,0.00,,,0.00,meteo_script,2013-01-08 14:15:00,
2013-01-08 09:20:00,33.3,30.1,30.30,WSW,241,1.9,7.0,88,0.00,,,0.00,meteo_script,2013-01-08 14:20:00,
2013-01-08 09:25:00,33.6,30.2,30.30,SW,226,1.6,5.0,87,0.00,,,0.00,meteo_script,2013-01-08 14:25:00,
2013-01-08 09:35:00,34.2,30.5,30.30,WSW,254,2.1,7.0,86,0.00,,,0.00,meteo_script,2013-01-08 14:35:00,
2013-01-08 09:40:00,34.5,30.7,30.30,WSW,240,2.0,8.0,85,0.00,,,0.00,meteo_script,2013-01-08 14:40:00,
2013-01-08 09:50:00,35.1,30.9,30.30,SW,222,3.3,9.0,84,0.00,,,0.00,meteo_script,2013-01-08 14:50:00,
2013-01-08 09:55:00,35.6,30.9,30.30,WSW,240,3.5,8.0,83,0.00,,,0.00,meteo_script,2013-01-08 14:55:00,
2013-01-08 10:00:00,35.9,31.2,30.30,WSW,250,3.0,5.0,83,0.00,,,0.00,meteo_script,2013-01-08 15:00:00,
2013-01-08 10:05:00,36.2,31.4,30.30,SW,215,3.1,12.0,82,0.00,,,0.00,meteo_script,2013-01-08 15:05:00,
2013-01-08 10:15:00,36.9,31.6,30.30,West,275,3.2,12.0,81,0.00,,,0.00,meteo_script,2013-01-08 15:15:00,
2013-01-08 10:20:00,37.0,31.8,30.30,WSW,238,3.7,9.0,81,0.00,,,0.00,meteo_script,2013-01-08 15:20:00,
2013-01-08 10:25:00,37.1,31.9,30.30,WSW,237,3.4,11.0,81,0.00,,,0.00,meteo_script,2013-01-08 15:25:00,
2013-01-08 10:30:00,37.5,31.9,30.30,WSW,256,3.8,10.0,80,0.00,,,0.00,meteo_script,2013-01-08 15:30:00,
2013-01-08 10:40:00,38.0,32.1,30.29,WSW,249,3.5,10.0,79,0.00,,,0.00,meteo_script,2013-01-08 15:40:00,
2013-01-08 10:45:00,38.3,32.4,30.29,West,268,3.3,8.0,79,0.00,,,0.00,meteo_script,2013-01-08 15:45:00,
2013-01-08 10:50:00,38.6,32.7,30.28,WNW,288,1.9,6.0,79,0.00,,,0.00,meteo_script,2013-01-08 15:50:00,
2013-01-08 11:00:00,39.3,32.7,30.28,SW,229,2.5,4.0,77,0.00,,,0.00,meteo_script,2013-01-08 16:00:00,
2013-01-08 11:05:00,39.5,32.6,30.28,SW,215,3.4,15.0,76,0.00,,,0.00,meteo_script,2013-01-08 16:05:00,
2013-01-08 11:10:00,39.7,32.5,30.28,SW,233,4.5,11.0,75,0.00,,,0.00,meteo_script,2013-01-08 16:10:00,
2013-01-08 11:15:00,39.9,32.7,30.28,SW,221,3.5,7.0,75,0.00,,,0.00,meteo_script,2013-01-08 16:15:00,
2013-01-08 11:25:00,40.3,32.7,30.27,WSW,241,4.0,11.0,74,0.00,,,0.00,meteo_script,2013-01-08 16:25:00,
2013-01-08 11:30:00,40.4,32.3,30.27,SSW,213,3.8,11.0,72,0.00,,,0.00,meteo_script,2013-01-08 16:30:00,
2013-01-08 11:35:00,40.7,32.6,30.27,WSW,239,3.7,8.0,72,0.00,,,0.00,meteo_script,2013-01-08 16:35:00,
2013-01-08 11:45:00,41.1,32.7,30.26,SW,235,2.0,7.0,72,0.00,,,0.00,meteo_script,2013-01-08 16:45:00,
2013-01-08 11:50:00,41.2,32.5,30.26,SSW,211,2.4,12.0,71,0.00,,,0.00,meteo_script,2013-01-08 16:50:00,
2013-01-08 11:55:00,41.5,32.6,30.25,WSW,249,3.7,12.0,70,0.00,,,0.00,meteo_script,2013-01-08 16:55:00,
2013-01-08 12:05:00,41.9,32.8,30.26,SW,224,2.4,5.0,70,0.00,,,0.00,meteo_script,2013-01-08 17:05:00,
2013-01-08 12:15:00,42.4,33.0,30.25,West,276,2.5,10.0,69,0.00,,,0.00,meteo_script,2013-01-08 17:15:00,
2013-01-08 12:25:00,42.5,33.5,30.25,WSW,257,1.2,4.0,70,0.00,,,0.00,meteo_script,2013-01-08 17:25:00,
2013-01-08 12:30:00,42.6,33.0,30.25,West,261,2.0,8.0,68,0.00,,,0.00,meteo_script,2013-01-08 17:30:00,
2013-01-08 12:35:00,43.0,33.4,30.25,SW,229,2.1,5.0,68,0.00,,,0.00,meteo_script,2013-01-08 17:35:00,
2013-01-08 12:45:00,43.2,33.4,30.25,WSW,256,1.3,1.3,68,0.00,,,0.00,meteo_script,2013-01-08 17:45:00,
2013-01-08 12:55:00,43.5,33.6,30.24,WSW,245,1.0,4.0,68,0.00,,,0.00,meteo_script,2013-01-08 17:55:00,
2013-01-08 13:00:00,43.2,33.0,30.24,WSW,250,1.3,5.0,67,0.00,,,0.00,meteo_script,2013-01-08 18:00:00,
2013-01-08 13:10:00,42.8,33.3,30.24,WSW,248,0.9,3.0,68,0.01,,,0.01,meteo_script,2013-01-08 18:10:00,
2013-01-08 13:15:00,42.7,33.0,30.24,SW,219,1.3,7.0,68,0.01,,,0.01,meteo_script,2013-01-08 18:15:00,
2013-01-08 13:20:00,42.7,32.9,30.24,SW,217,1.6,4.0,68,0.01,,,0.01,meteo_script,2013-01-08 18:20:00,
2013-01-08 13:30:00,42.3,32.5,30.24,SW,215,1.8,7.0,68,0.01,,,0.01,meteo_script,2013-01-08 18:30:00,
2013-01-08 13:35:00,42.2,32.7,30.24,WSW,244,2.0,5.0,68,0.01,,,0.01,meteo_script,2013-01-08 18:35:00,
2013-01-08 13:40:00,42.3,32.5,30.24,WSW,237,1.1,3.0,68,0.01,,,0.01,meteo_script,2013-01-08 18:40:00,
2013-01-08 13:50:00,42.1,32.7,30.24,West,277,0.7,4.0,69,0.01,,,0.01,meteo_script,2013-01-08 18:50:00,
2013-01-08 13:55:00,42.1,33.0,30.24,West,265,0.8,3.0,70,0.01,,,0.01,meteo_script,2013-01-08 18:55:00,
2013-01-08 14:35:00,41.7,32.7,30.25,WSW,240,0.9,4.0,70,0.01,,,0.02,meteo_script,2013-01-08 19:35:00,
2013-01-08 14:40:00,41.6,32.6,30.26,SW,217,0.8,3.0,70,0.02,,,0.03,meteo_script,2013-01-08 19:40:00,
2013-01-08 14:45:00,41.7,32.3,30.26,SW,232,1.3,8.0,69,0.02,,,0.03,meteo_script,2013-01-08 19:45:00,
2013-01-08 14:50:00,41.8,32.7,30.26,SW,227,1.5,5.0,70,0.02,,,0.03,meteo_script,2013-01-08 19:50:00,
2013-01-08 15:00:00,41.4,32.7,30.26,SW,233,1.0,5.0,70,0.02,,,0.04,meteo_script,2013-01-08 20:00:00,
2013-01-08 15:05:00,41.4,32.3,30.26,SW,233,1.0,5.0,70,0.02,,,0.04,meteo_script,2013-01-08 20:05:00,
2013-01-08 15:15:00,41.0,32.3,30.26,SW,233,0.4,3.0,71,0.02,,,0.04,meteo_script,2013-01-08 20:15:00,
2013-01-08 15:20:00,40.9,32.4,30.26,SW,236,1.1,5.0,71,0.03,,,0.05,meteo_script,2013-01-08 20:20:00,
2013-01-08 15:30:00,40.9,32.2,30.26,WSW,240,1.3,6.0,71,0.03,,,0.05,meteo_script,2013-01-08 20:30:00,
2013-01-08 15:35:00,40.7,32.1,30.26,WSW,238,0.7,2.0,71,0.03,,,0.05,meteo_script,2013-01-08 20:35:00,
2013-01-08 15:40:00,40.7,32.3,30.26,WSW,240,0.5,5.0,72,0.02,,,0.05,meteo_script,2013-01-08 20:40:00,
2013-01-08 15:50:00,40.5,32.2,30.26,WSW,240,0.2,2.0,72,0.03,,,0.06,meteo_script,2013-01-08 20:50:00,
2013-01-08 15:55:00,40.3,32.0,30.26,WSW,237,0.3,3.0,72,0.02,,,0.06,meteo_script,2013-01-08 20:55:00,
2013-01-08 16:05:00,39.8,31.7,30.26,SW,220,0.5,3.0,72,0.02,,,0.06,meteo_script,2013-01-08 21:05:00,
2013-01-08 16:15:00,39.4,31.5,30.26,SW,236,0.3,4.0,73,0.02,,,0.06,meteo_script,2013-01-08 21:15:00,
2013-01-08 16:20:00,39.2,31.3,30.26,SW,232,0.3,2.0,73,0.01,,,0.06,meteo_script,2013-01-08 21:20:00,
2013-01-08 16:25:00,38.9,31.2,30.27,SW,232,0.1,1.0,73,0.01,,,0.06,meteo_script,2013-01-08 21:25:00,
2013-01-08 16:35:00,38.6,31.1,30.27,SW,227,0.3,3.0,74,0.02,,,0.07,meteo_script,2013-01-08 21:35:00,
2013-01-08 16:40:00,38.4,30.9,30.27,North,0,0.2,2.0,74,0.02,,,0.07,meteo_script,2013-01-08 21:40:00,
2013-01-08 16:45:00,38.3,31.1,30.27,SW,228,0.1,2.0,75,0.02,,,0.07,meteo_script,2013-01-08 21:45:00,
2013-01-08 16:55:00,37.9,31.0,30.27,SW,227,0.1,1.0,76,0.01,,,0.07,meteo_script,2013-01-08 21:55:00,
2013-01-08 17:00:00,37.7,30.8,30.27,SW,226,0.2,4.0,76,0.01,,,0.07,meteo_script,2013-01-08 22:00:00,
2013-01-08 17:05:00,37.7,31.0,30.27,SW,225,0.2,2.0,76,0.01,,,0.07,meteo_script,2013-01-08 22:05:00,
2013-01-08 17:15:00,37.8,30.9,30.27,North,0,0.2,2.0,76,0.01,,,0.07,meteo_script,2013-01-08 22:15:00,
2013-01-08 17:20:00,37.6,30.7,30.27,SW,221,0.2,2.0,76,0.01,,,0.07,meteo_script,2013-01-08 22:20:00,
2013-01-08 17:25:00,37.3,30.8,30.27,SW,221,0.3,4.0,77,0.01,,,0.07,meteo_script,2013-01-08 22:25:00,
2013-01-08 17:35:00,37.2,30.7,30.28,North,0,0.2,1.0,77,0.00,,,0.07,meteo_script,2013-01-08 22:35:00,
2013-01-08 17:40:00,37.0,30.8,30.28,North,0,0.0,1.0,78,0.00,,,0.07,meteo_script,2013-01-08 22:40:00,
2013-01-08 17:45:00,36.8,30.7,30.28,North,0,0.0,1.0,78,0.00,,,0.07,meteo_script,2013-01-08 22:45:00,
2013-01-08 17:55:00,36.3,30.7,30.28,North,0,0.0,1.0,80,0.00,,,0.07,meteo_script,2013-01-08 22:55:00,
2013-01-08 18:00:00,36.1,31.0,30.29,SW,220,0.1,2.0,81,0.00,,,0.07,meteo_script,2013-01-08 23:00:00,
2013-01-08 18:05:00,35.9,31.0,30.29,SW,220,0.2,1.0,82,0.00,,,0.07,meteo_script,2013-01-08 23:05:00,
2013-01-08 18:15:00,35.7,30.7,30.29,SSE,159,0.2,1.0,82,0.00,,,0.07,meteo_script,2013-01-08 23:15:00,
2013-01-08 18:20:00,35.7,30.8,30.29,SSE,159,0.1,1.0,82,0.00,,,0.07,meteo_script,2013-01-08 23:20:00,
2013-01-08 18:25:00,35.7,31.0,30.29,SSE,159,0.1,1.0,82,0.00,,,0.07,meteo_script,2013-01-08 23:25:00,
2013-01-08 18:30:00,35.6,31.0,30.29,North,0,0.1,1.0,83,0.00,,,0.07,meteo_script,2013-01-08 23:30:00,
2013-01-08 18:40:00,35.4,30.7,30.30,North,0,0.0,1.0,82,0.00,,,0.07,meteo_script,2013-01-08 23:40:00,
2013-01-08 18:45:00,35.2,30.9,30.30,SSE,159,0.0,1.0,84,0.00,,,0.07,meteo_script,2013-01-08 23:45:00,
2013-01-08 18:50:00,35.2,30.6,30.30,North,0,0.0,1.0,83,0.00,,,0.07,meteo_script,2013-01-08 23:50:00,
2013-01-08 19:00:00,34.9,30.9,30.31,North,0,0.0,0.0,85,0.00,,,0.07,meteo_script,2013-01-09 00:00:00,
2013-01-08 19:05:00,34.7,30.6,30.31,North,0,0.0,0.0,85,0.00,,,0.07,meteo_script,2013-01-09 00:05:00,
2013-01-08 19:10:00,34.5,30.6,30.31,North,0,0.0,0.0,85,0.00,,,0.07,meteo_script,2013-01-09 00:10:00,
2013-01-08 19:20:00,34.2,30.5,30.32,North,0,0.0,0.0,86,0.00,,,0.07,meteo_script,2013-01-09 00:20:00,
2013-01-08 19:30:00,34.4,30.5,30.32,North,0,0.0,0.0,85,0.00,,,0.07,meteo_script,2013-01-09 00:30:00,
2013-01-08 19:40:00,34.1,30.3,30.32,North,0,0.0,0.0,86,0.00,,,0.07,meteo_script,2013-01-09 00:40:00,
2013-01-08 19:45:00,33.9,30.4,30.32,North,0,0.0,0.0,86,0.00,,,0.07,meteo_script,2013-01-09 00:45:00,
2013-01-08 19:50:00,33.8,30.3,30.32,SSE,159,0.0,1.0,87,0.00,,,0.07,meteo_script,2013-01-09 00:50:00,
2013-01-08 20:00:00,33.9,30.6,30.32,SSE,159,0.1,2.0,87,0.00,,,0.07,meteo_script,2013-01-09 01:00:00,
2013-01-08 20:05:00,34.2,30.8,30.32,North,0,0.2,2.0,87,0.00,,,0.07,meteo_script,2013-01-09 01:05:00,
2013-01-08 20:10:00,34.1,30.9,30.32,North,0,0.2,0.0,88,0.00,,,0.07,meteo_script,2013-01-09 01:10:00,
2013-01-08 20:20:00,33.8,30.7,30.33,North,0,0.0,0.0,88,0.00,,,0.07,meteo_script,2013-01-09 01:20:00,
2013-01-08 20:25:00,33.7,30.5,30.33,North,0,0.0,0.0,88,0.00,,,0.07,meteo_script,2013-01-09 01:25:00,
2013-01-08 20:30:00,33.6,30.3,30.33,North,0,0.0,0.0,87,0.00,,,0.07,meteo_script,2013-01-09 01:30:00,
2013-01-08 20:35:00,33.9,30.4,30.33,North,0,0.0,0.0,87,0.00,,,0.07,meteo_script,2013-01-09 01:35:00,
2013-01-08 20:45:00,33.6,30.5,30.33,North,0,0.0,0.0,88,0.00,,,0.07,meteo_script,2013-01-09 01:45:00,
2013-01-08 20:50:00,33.1,30.2,30.33,North,0,0.0,0.0,89,0.00,,,0.07,meteo_script,2013-01-09 01:50:00,
2013-01-08 20:55:00,32.6,29.9,30.33,North,0,0.0,0.0,89,0.00,,,0.07,meteo_script,2013-01-09 01:55:00,
2013-01-08 21:05:00,32.2,29.7,30.33,North,0,0.0,0.0,90,0.00,,,0.07,meteo_script,2013-01-09 02:05:00,
2013-01-08 21:10:00,32.5,30.1,30.33,North,0,0.0,0.0,90,0.00,,,0.07,meteo_script,2013-01-09 02:10:00,
2013-01-08 21:15:00,32.9,30.3,30.33,North,0,0.0,0.0,90,0.00,,,0.07,meteo_script,2013-01-09 02:15:00,
2013-01-08 21:20:00,33.2,30.3,30.33,North,0,0.0,0.0,89,0.00,,,0.07,meteo_script,2013-01-09 02:20:00,
2013-01-08 21:30:00,33.4,30.5,30.33,North,0,0.0,0.0,89,0.00,,,0.07,meteo_script,2013-01-09 02:30:00,
2013-01-08 21:35:00,33.1,30.2,30.33,North,0,0.0,0.0,89,0.00,,,0.07,meteo_script,2013-01-09 02:35:00,
2013-01-08 21:40:00,32.9,30.1,30.33,North,0,0.0,0.0,89,0.00,,,0.07,meteo_script,2013-01-09 02:40:00,
2013-01-08 21:45:00,32.5,29.9,30.33,North,0,0.0,0.0,90,0.00,,,0.07,meteo_script,2013-01-09 02:45:00,
2013-01-08 21:55:00,31.8,29.3,30.32,North,0,0.0,0.0,90,0.00,,,0.07,meteo_script,2013-01-09 02:55:00,
2013-01-08 22:00:00,31.5,29.2,30.33,North,0,0.0,0.0,91,0.00,,,0.07,meteo_script,2013-01-09 03:00:00,
2013-01-08 22:05:00,31.4,29.1,30.33,North,0,0.0,0.0,91,0.00,,,0.07,meteo_script,2013-01-09 03:05:00,
2013-01-08 22:10:00,31.5,29.2,30.32,SSE,159,0.0,2.0,91,0.00,,,0.07,meteo_script,2013-01-09 03:10:00,
2013-01-08 22:20:00,31.7,29.4,30.33,North,0,0.1,0.0,91,0.00,,,0.07,meteo_script,2013-01-09 03:20:00,
2013-01-08 22:25:00,32.2,29.8,30.33,North,0,0.0,0.0,91,0.00,,,0.07,meteo_script,2013-01-09 03:25:00,
2013-01-08 22:30:00,32.0,29.8,30.32,North,0,0.0,0.0,91,0.00,,,0.07,meteo_script,2013-01-09 03:30:00,
2013-01-08 22:40:00,31.6,29.5,30.33,North,0,0.0,0.0,92,0.00,,,0.07,meteo_script,2013-01-09 03:40:00,
2013-01-08 22:45:00,31.8,29.5,30.33,North,0,0.0,1.0,91,0.00,,,0.07,meteo_script,2013-01-09 03:45:00,
2013-01-08 22:50:00,31.8,29.5,30.33,North,0,0.0,0.0,91,0.00,,,0.07,meteo_script,2013-01-09 03:50:00,
2013-01-08 22:55:00,32.1,29.8,30.33,North,0,0.0,0.0,91,0.00,,,0.07,meteo_script,2013-01-09 03:55:00,
2013-01-08 23:05:00,31.9,29.6,30.33,North,0,0.0,0.0,91,0.00,,,0.07,meteo_script,2013-01-09 04:05:00,
2013-01-08 23:10:00,31.6,29.5,30.33,North,0,0.0,0.0,92,0.00,,,0.07,meteo_script,2013-01-09 04:10:00,
2013-01-08 23:15:00,31.6,29.6,30.33,North,0,0.0,0.0,92,0.00,,,0.07,meteo_script,2013-01-09 04:15:00,
2013-01-08 23:20:00,31.2,29.2,30.33,North,0,0.0,0.0,92,0.00,,,0.07,meteo_script,2013-01-09 04:20:00,
2013-01-08 23:30:00,30.7,29.2,30.33,North,0,0.0,0.0,94,0.00,,,0.07,meteo_script,2013-01-09 04:30:00,
2013-01-08 23:35:00,30.6,29.3,30.33,North,0,0.0,0.0,95,0.00,,,0.07,meteo_script,2013-01-09 04:35:00,
2013-01-08 23:40:00,30.2,28.8,30.33,North,0,0.0,0.0,94,0.00,,,0.07,meteo_script,2013-01-09 04:40:00,
2013-01-08 23:50:00,29.6,28.3,30.34,North,0,0.0,0.0,95,0.00,,,0.07,meteo_script,2013-01-09 04:50:00,
2013-01-08 23:55:00,30.0,29.0,30.34,North,0,0.0,0.0,96,0.00,,,0.07,meteo_script,2013-01-09 04:55:00,